﻿_id,日時,平均風速(m/s),平均風向,最大瞬間風速(m/s),最大風速時風向,気温(℃),湿度(%),10分間移動積算雨量(mm),1時間移動積算雨量(mm),日雨量(mm),累計雨量(mm),日射(日積算)(MJ/m2),日照(日積算)(min),現地気圧(hPa),海面気圧(hPa)
1,2023-05-01T00:00:00,0.6,西北西,1,西,10.1,91.5,0,0,9,18,10.69,242,1001.1,1015.2
2,2023-05-01T00:01:00,0.6,西北西,0.9,西北西,10.1,91.4,0,0,0,18,0,0,1001.2,1015.3
3,2023-05-01T00:02:00,0.5,西北西,0.9,西北西,10.1,91.4,0,0,0,18,0,0,1001.2,1015.3
4,2023-05-01T00:03:00,0.5,西北西,0.9,西北西,10.1,91.5,0,0,0,18,0,0,1001.2,1015.3
5,2023-05-01T00:04:00,0.4,西北西,0.9,西北西,10.2,91.8,0,0,0,18,0,0,1001.2,1015.3
6,2023-05-01T00:05:00,0.4,北西,0.9,西北西,10.2,91.8,0,0,0,18,0,0,1001.2,1015.3
7,2023-05-01T00:06:00,0.3,北西,0.8,北西,10.1,91.6,0,0,0,18,0,0,1001.3,1015.4
8,2023-05-01T00:07:00,0.3,北西,0.7,北北東,10,90.9,0,0,0,18,0,0,1001.3,1015.4
9,2023-05-01T00:08:00,0.3,北北西,0.8,北東,9.9,90.9,0,0,0,18,0,0,1001.3,1015.4
10,2023-05-01T00:09:00,0.3,北,1,北北東,10.1,91.2,0,0,0,18,0,0,1001.2,1015.3
11,2023-05-01T00:10:00,0.3,北,1,北北東,10.2,91.7,0,0,0,18,0,0,1001.3,1015.4
12,2023-05-01T00:11:00,0.3,北北東,1,北北東,10.2,91.7,0,0,0,18,0,0,1001.2,1015.3
13,2023-05-01T00:12:00,0.4,北北東,1,北北東,10.1,91.4,0,0,0,18,0,0,1001.2,1015.3
14,2023-05-01T00:13:00,0.4,北北東,1,北北東,10.2,91.4,0,0,0,18,0,0,1001.2,1015.3
15,2023-05-01T00:14:00,0.4,北北東,1,北北東,10.2,91.2,0,0,0,18,0,0,1001.2,1015.3
16,2023-05-01T00:15:00,0.5,北北東,1,北北東,10.2,91.1,0,0,0,18,0,0,1001.2,1015.3
17,2023-05-01T00:16:00,0.6,北北東,1,北北東,10.3,91.3,0,0,0,18,0,0,1001.2,1015.3
18,2023-05-01T00:17:00,0.6,北北東,1.1,東北東,10.1,90.9,0,0,0,18,0,0,1001.2,1015.3
19,2023-05-01T00:18:00,0.6,北北東,1.4,北北東,10.2,90.8,0,0,0,18,0,0,1001.2,1015.3
20,2023-05-01T00:19:00,0.6,北北東,1.4,北北東,10.1,90.8,0,0,0,18,0,0,1001.2,1015.3
21,2023-05-01T00:20:00,0.7,北北東,1.4,北北東,10.1,90.4,0,0,0,18,0,0,1001.2,1015.3
22,2023-05-01T00:21:00,0.7,北北東,1.4,北北東,10.1,90.4,0,0,0,18,0,0,1001.2,1015.3
23,2023-05-01T00:22:00,0.8,北北東,1.4,北北東,10.1,90.3,0,0,0,18,0,0,1001.1,1015.2
24,2023-05-01T00:23:00,0.9,北北東,1.4,北北東,10.1,90.5,0,0,0,18,0,0,1001.1,1015.2
25,2023-05-01T00:24:00,0.9,北北東,1.4,北北東,10.3,90.7,0,0,0,18,0,0,1001.2,1015.3
26,2023-05-01T00:25:00,0.9,北北東,1.4,北北東,10.3,90.8,0,0,0,18,0,0,1001.1,1015.2
27,2023-05-01T00:26:00,0.8,北北東,1.4,北北東,10.1,90.5,0,0,0,18,0,0,1001.2,1015.3
28,2023-05-01T00:27:00,0.8,北,1.4,北北東,10,89.9,0,0,0,18,0,0,1001.1,1015.2
29,2023-05-01T00:28:00,0.7,北,1.4,北北東,9.9,89.9,0,0,0,18,0,0,1001.1,1015.2
30,2023-05-01T00:29:00,0.7,北,1.4,北北東,9.8,89.9,0,0,0,18,0,0,1001.1,1015.2
31,2023-05-01T00:30:00,0.6,北北西,1.4,北北東,9.9,90.3,0,0,0,18,0,0,1001.1,1015.2
32,2023-05-01T00:31:00,0.5,北北西,1.3,北北東,9.9,90.5,0,0,0,18,0,0,1001.1,1015.2
33,2023-05-01T00:32:00,0.5,北北西,1.2,北北東,9.8,90.7,0,0,0,18,0,0,1001.1,1015.2
34,2023-05-01T00:33:00,0.4,北西,1.1,北北東,10,91.2,0,0,0,18,0,0,1001.1,1015.2
35,2023-05-01T00:34:00,0.4,北西,1,北西,10,91.3,0,0,0,18,0,0,1001.1,1015.2
36,2023-05-01T00:35:00,0.5,北西,1.2,北西,10,91.5,0,0,0,18,0,0,1001,1015.1
37,2023-05-01T00:36:00,0.5,北西,1.2,北西,10,91.3,0,0,0,18,0,0,1001.1,1015.2
38,2023-05-01T00:37:00,0.5,北西,1.2,北西,9.9,91.1,0,0,0,18,0,0,1001.1,1015.2
39,2023-05-01T00:38:00,0.5,北西,1.2,北西,9.7,90.6,0,0,0,18,0,0,1001,1015.1
40,2023-05-01T00:39:00,0.5,北北西,1.2,北西,9.8,90.6,0,0,0,18,0,0,1001,1015.1
41,2023-05-01T00:40:00,0.6,北北西,1.2,北西,10,91,0,0,0,18,0,0,1001.1,1015.2
42,2023-05-01T00:41:00,0.6,北北西,1.2,北西,9.9,91.3,0,0,0,18,0,0,1001.1,1015.2
43,2023-05-01T00:42:00,0.5,北北西,1.2,北西,9.9,90.9,0,0,0,18,0,0,1001.1,1015.2
44,2023-05-01T00:43:00,0.5,北北西,1.2,北西,9.8,90.9,0,0,0,18,0,0,1001.1,1015.2
45,2023-05-01T00:44:00,0.5,北北西,1.2,北西,9.6,90.6,0,0,0,18,0,0,1001.1,1015.2
46,2023-05-01T00:45:00,0.4,北北西,1.1,北,9.6,90.6,0,0,0,18,0,0,1001.1,1015.2
47,2023-05-01T00:46:00,0.4,北北西,0.9,北東,9.6,90.7,0,0,0,18,0,0,1001.1,1015.2
48,2023-05-01T00:47:00,0.4,北西,0.9,北東,9.5,91,0,0,0,18,0,0,1001,1015.1
49,2023-05-01T00:48:00,0.4,北西,0.9,北東,9.5,90.9,0,0,0,18,0,0,1001,1015.1
50,2023-05-01T00:49:00,0.5,北西,0.9,北東,9.5,91.3,0,0,0,18,0,0,1000.9,1015
51,2023-05-01T00:50:00,0.5,北西,1.1,西北西,9.6,91.6,0,0,0,18,0,0,1001,1015.1
52,2023-05-01T00:51:00,0.6,北西,1.5,西,9.6,91.8,0,0,0,18,0,0,1001,1015.1
53,2023-05-01T00:52:00,0.7,西北西,1.5,西,9.6,91.7,0,0,0,18,0,0,1000.9,1015
54,2023-05-01T00:53:00,0.7,西北西,1.5,西,9.6,91.7,0,0,0,18,0,0,1000.9,1015
55,2023-05-01T00:54:00,0.8,西北西,1.6,北西,9.6,91.9,0,0,0,18,0,0,1000.9,1015
56,2023-05-01T00:55:00,0.9,西北西,1.6,北西,9.6,91.9,0,0,0,18,0,0,1000.9,1015
57,2023-05-01T00:56:00,0.9,北西,1.6,北西,9.6,91.7,0,0,0,18,0,0,1000.9,1015
58,2023-05-01T00:57:00,1,北西,1.6,北西,9.6,91.8,0,0,0,18,0,0,1000.9,1015
59,2023-05-01T00:58:00,1,西北西,1.6,北西,9.7,91.9,0,0,0,18,0,0,1000.9,1015
60,2023-05-01T00:59:00,0.9,西北西,1.6,北西,9.7,92.1,0,0,0,18,0,0,1000.9,1015
61,2023-05-01T01:00:00,0.9,西北西,1.6,北西,9.5,91.6,0,0,0,18,0,0,1000.9,1015
62,2023-05-01T01:01:00,0.8,北西,1.6,北西,9.4,91.2,0,0,0,18,0,0,1000.9,1015
63,2023-05-01T01:02:00,0.8,北西,1.6,北西,9.4,91.3,0,0,0,18,0,0,1000.9,1015
64,2023-05-01T01:03:00,0.7,北西,1.6,北西,9.5,91.6,0,0,0,18,0,0,1000.9,1015
65,2023-05-01T01:04:00,0.6,北北西,1.4,北西,9.6,92.1,0,0,0,18,0,0,1000.9,1015
66,2023-05-01T01:05:00,0.5,北北西,1.1,西北西,9.7,92.4,0,0,0,18,0,0,1000.9,1015
67,2023-05-01T01:06:00,0.5,北北西,1.1,西北西,9.6,92.1,0,0,0,18,0,0,1000.9,1015
68,2023-05-01T01:07:00,0.4,北北西,1.1,西北西,9.6,91.9,0,0,0,18,0,0,1000.9,1015
69,2023-05-01T01:08:00,0.3,北,0.8,北北東,9.5,91.7,0,0,0,18,0,0,1000.9,1015
70,2023-05-01T01:09:00,0.3,北,0.8,北北東,9.5,91.6,0,0,0,18,0,0,1000.9,1015
71,2023-05-01T01:10:00,0.3,北,0.8,北北東,9.3,91.5,0,0,0,18,0,0,1000.9,1015
72,2023-05-01T01:11:00,0.3,北,0.8,北北東,9.2,91.3,0,0,0,18,0,0,1000.9,1015
73,2023-05-01T01:12:00,0.3,北北西,0.8,北西,9.1,91.1,0,0,0,18,0,0,1000.9,1015
74,2023-05-01T01:13:00,0.3,北北西,0.9,西北西,9.2,91.3,0,0,0,18,0,0,1000.8,1014.9
75,2023-05-01T01:14:00,0.4,北北西,0.9,西北西,9.3,92.1,0,0,0,18,0,0,1000.9,1015
76,2023-05-01T01:15:00,0.4,北西,0.9,西北西,9.3,92,0,0,0,18,0,0,1000.9,1015
77,2023-05-01T01:16:00,0.4,北西,1.2,西,9.4,92.4,0,0,0,18,0,0,1000.8,1014.9
78,2023-05-01T01:17:00,0.5,西北西,1.2,西,9.2,92.3,0,0,0,18,0,0,1000.8,1014.9
79,2023-05-01T01:18:00,0.5,西北西,1.2,西,9.3,92.4,0,0,0,18,0,0,1000.8,1014.9
80,2023-05-01T01:19:00,0.6,西北西,1.2,西,9.2,92.2,0,0,0,18,0,0,1000.7,1014.8
81,2023-05-01T01:20:00,0.6,西北西,1.2,西,9.2,92.3,0,0,0,18,0,0,1000.8,1014.9
82,2023-05-01T01:21:00,0.6,西北西,1.2,西,9.2,92.5,0,0,0,18,0,0,1000.7,1014.8
83,2023-05-01T01:22:00,0.6,西北西,1.2,西,9.2,92.3,0,0,0,18,0,0,1000.7,1014.8
84,2023-05-01T01:23:00,0.6,北西,1.2,西,9.2,92.5,0,0,0,18,0,0,1000.7,1014.8
85,2023-05-01T01:24:00,0.6,北西,1.2,西,9.2,92.7,0,0,0,18,0,0,1000.7,1014.8
86,2023-05-01T01:25:00,0.5,北西,1.2,西,9.2,92.7,0,0,0,18,0,0,1000.7,1014.8
87,2023-05-01T01:26:00,0.5,北西,1.1,北北東,9.3,92.9,0,0,0,18,0,0,1000.7,1014.8
88,2023-05-01T01:27:00,0.6,北北西,1.3,北,9.3,93,0,0,0,18,0,0,1000.7,1014.8
89,2023-05-01T01:28:00,0.6,北北西,1.4,北北東,9.2,92.9,0,0,0,18,0,0,1000.6,1014.7
90,2023-05-01T01:29:00,0.7,北,1.5,北東,9.4,93,0,0,0,18,0,0,1000.7,1014.8
91,2023-05-01T01:30:00,0.7,北,1.5,北東,9.3,93.1,0,0,0,18,0,0,1000.7,1014.8
92,2023-05-01T01:31:00,0.7,北,1.5,北東,9.2,92.5,0,0,0,18,0,0,1000.7,1014.8
93,2023-05-01T01:32:00,0.7,北北東,1.5,北東,9.3,92.7,0,0,0,18,0,0,1000.6,1014.7
94,2023-05-01T01:33:00,0.7,北北東,1.5,北東,9.3,92.8,0,0,0,18,0,0,1000.6,1014.7
95,2023-05-01T01:34:00,0.8,北北東,1.5,北東,9.3,92.8,0,0,0,18,0,0,1000.6,1014.7
96,2023-05-01T01:35:00,0.8,北北東,1.5,北東,9.3,92.7,0,0,0,18,0,0,1000.6,1014.7
97,2023-05-01T01:36:00,0.8,北北東,1.5,北東,9.2,92.3,0,0,0,18,0,0,1000.5,1014.6
98,2023-05-01T01:37:00,0.8,北北東,1.5,北東,9.3,92.5,0,0,0,18,0,0,1000.5,1014.6
99,2023-05-01T01:38:00,0.7,北北東,1.5,北東,9.3,92.6,0,0,0,18,0,0,1000.5,1014.6
100,2023-05-01T01:39:00,0.6,北,1.3,北北東,9.1,92,0,0,0,18,0,0,1000.5,1014.6
101,2023-05-01T01:40:00,0.6,北,1.2,北北東,9,91.5,0,0,0,18,0,0,1000.4,1014.5
102,2023-05-01T01:41:00,0.5,北,1.2,北北東,9,91.8,0,0,0,18,0,0,1000.4,1014.5
103,2023-05-01T01:42:00,0.5,北北西,1.2,北北東,9,91.9,0,0,0,18,0,0,1000.4,1014.5
104,2023-05-01T01:43:00,0.5,北北西,1.2,北北東,9,92,0,0,0,18,0,0,1000.4,1014.5
105,2023-05-01T01:44:00,0.4,北北西,1.2,北北東,9,92,0,0,0,18,0,0,1000.4,1014.5
106,2023-05-01T01:45:00,0.4,北北西,1,北西,9,92.4,0,0,0,18,0,0,1000.4,1014.5
107,2023-05-01T01:46:00,0.3,北北西,1,北西,9,92.6,0,0,0,18,0,0,1000.3,1014.4
108,2023-05-01T01:47:00,0.3,北北西,1,北西,9,92.6,0,0,0,18,0,0,1000.3,1014.4
109,2023-05-01T01:48:00,0.2,静穏,0.9,北西,9,92.8,0,0,0,18,0,0,1000.3,1014.4
110,2023-05-01T01:49:00,0.2,静穏,0.9,北西,9,92.8,0,0,0,18,0,0,1000.3,1014.4
111,2023-05-01T01:50:00,0.2,静穏,0.9,北西,8.8,92.4,0,0,0,18,0,0,1000.3,1014.4
112,2023-05-01T01:51:00,0.2,静穏,0.8,北西,8.8,92.3,0,0,0,18,0,0,1000.2,1014.3
113,2023-05-01T01:52:00,0.2,静穏,0.8,北西,8.9,92.7,0,0,0,18,0,0,1000.2,1014.3
114,2023-05-01T01:53:00,0.2,静穏,0.9,北西,8.9,92.9,0,0,0,18,0,0,1000.2,1014.3
115,2023-05-01T01:54:00,0.3,北北西,0.9,北西,8.9,93,0,0,0,18,0,0,1000.3,1014.4
116,2023-05-01T01:55:00,0.3,北北西,1,北西,8.8,92.9,0,0,0,18,0,0,1000.3,1014.4
117,2023-05-01T01:56:00,0.4,北北西,1.2,西北西,8.8,92.9,0,0,0,18,0,0,1000.3,1014.4
118,2023-05-01T01:57:00,0.5,北西,1.2,西北西,9,93.5,0,0,0,18,0,0,1000.2,1014.3
119,2023-05-01T01:58:00,0.5,北西,1.2,西北西,8.9,93.4,0,0,0,18,0,0,1000.2,1014.3
120,2023-05-01T01:59:00,0.6,北西,1.2,西北西,8.8,93.2,0,0,0,18,0,0,1000.2,1014.3
121,2023-05-01T02:00:00,0.6,北西,1.2,西北西,8.7,92.8,0,0,0,18,0,0,1000.3,1014.4
122,2023-05-01T02:01:00,0.6,北西,1.2,西北西,8.6,92.7,0,0,0,18,0,0,1000.3,1014.4
123,2023-05-01T02:02:00,0.7,北西,1.2,西北西,8.7,92.9,0,0,0,18,0,0,1000.3,1014.4
124,2023-05-01T02:03:00,0.7,北西,1.2,西北西,8.7,93.1,0,0,0,18,0,0,1000.3,1014.4
125,2023-05-01T02:04:00,0.6,西北西,1.2,西北西,8.6,92.9,0,0,0,18,0,0,1000.2,1014.3
126,2023-05-01T02:05:00,0.6,西北西,1.2,西北西,8.6,92.8,0,0,0,18,0,0,1000.2,1014.3
127,2023-05-01T02:06:00,0.6,西北西,1.1,西北西,8.6,92.8,0,0,0,18,0,0,1000.2,1014.3
128,2023-05-01T02:07:00,0.6,西北西,1,北西,8.5,92.7,0,0,0,18,0,0,1000.2,1014.3
129,2023-05-01T02:08:00,0.6,西北西,1,北西,8.5,93,0,0,0,18,0,0,1000.2,1014.3
130,2023-05-01T02:09:00,0.5,西北西,0.9,北西,8.5,93,0,0,0,18,0,0,1000.2,1014.3
131,2023-05-01T02:10:00,0.5,西北西,0.9,北西,8.5,93.3,0,0,0,18,0,0,1000.2,1014.3
132,2023-05-01T02:11:00,0.5,西北西,0.8,西南西,8.7,93.4,0,0,0,18,0,0,1000.2,1014.3
133,2023-05-01T02:12:00,0.4,西北西,0.8,西南西,8.6,93.6,0,0,0,18,0,0,1000.2,1014.3
134,2023-05-01T02:13:00,0.4,西北西,0.8,西南西,8.7,93.7,0,0,0,18,0,0,1000.2,1014.3
135,2023-05-01T02:14:00,0.4,西北西,0.9,西,8.6,93.7,0,0,0,18,0,0,1000.2,1014.3
136,2023-05-01T02:15:00,0.4,西北西,0.9,西,8.5,93.4,0,0,0,18,0,0,1000.2,1014.3
137,2023-05-01T02:16:00,0.4,西北西,0.9,西,8.3,93.1,0,0,0,18,0,0,1000.2,1014.4
138,2023-05-01T02:17:00,0.4,西北西,1,西北西,8.3,93.1,0,0,0,18,0,0,1000.2,1014.4
139,2023-05-01T02:18:00,0.4,西北西,1,西北西,8.3,93.4,0,0,0,18,0,0,1000.2,1014.4
140,2023-05-01T02:19:00,0.4,西北西,1,西北西,8.3,93.2,0,0,0,18,0,0,1000.2,1014.4
141,2023-05-01T02:20:00,0.4,西,1,西北西,8.3,93.5,0,0,0,18,0,0,1000.1,1014.3
142,2023-05-01T02:21:00,0.4,西,1,西北西,8.3,93.4,0,0,0,18,0,0,1000.1,1014.3
143,2023-05-01T02:22:00,0.4,西,1,西北西,8.5,93.9,0,0,0,18,0,0,1000.1,1014.2
144,2023-05-01T02:23:00,0.4,西,1,西北西,8.5,94.1,0,0,0,18,0,0,1000.1,1014.2
145,2023-05-01T02:24:00,0.4,西,1,西北西,8.4,94.1,0,0,0,18,0,0,1000.1,1014.2
146,2023-05-01T02:25:00,0.3,西北西,1,西北西,8.4,94,0,0,0,18,0,0,1000.1,1014.2
147,2023-05-01T02:26:00,0.3,北西,1,西北西,8.6,94.1,0,0,0,18,0,0,1000.1,1014.2
148,2023-05-01T02:27:00,0.3,北西,0.9,西,8.6,94.4,0,0,0,18,0,0,1000,1014.1
149,2023-05-01T02:28:00,0.2,静穏,0.8,西,8.6,94.4,0,0,0,18,0,0,1000,1014.1
150,2023-05-01T02:29:00,0.3,北西,0.8,西,8.5,94.1,0,0,0,18,0,0,1000,1014.1
151,2023-05-01T02:30:00,0.2,静穏,0.8,西,8.5,94.2,0,0,0,18,0,0,1000,1014.1
152,2023-05-01T02:31:00,0.2,静穏,0.8,西,8.5,93.8,0,0,0,18,0,0,1000,1014.1
153,2023-05-01T02:32:00,0.2,静穏,0.6,西北西,8.4,93.8,0,0,0,18,0,0,1000,1014.1
154,2023-05-01T02:33:00,0.2,静穏,0.5,北,8.4,93.6,0,0,0,18,0,0,1000,1014.1
155,2023-05-01T02:34:00,0.2,静穏,0.5,北,8.5,93.9,0,0,0,18,0,0,1000,1014.1
156,2023-05-01T02:35:00,0.2,静穏,0.6,西北西,8.4,93.7,0,0,0,18,0,0,1000.1,1014.2
157,2023-05-01T02:36:00,0.3,北西,0.8,西,8.4,94,0,0,0,18,0,0,1000.1,1014.2
158,2023-05-01T02:37:00,0.3,西北西,1,西,8.3,93.8,0,0,0,18,0,0,1000.1,1014.3
159,2023-05-01T02:38:00,0.4,西北西,1.3,西南西,8.2,93.5,0,0,0,18,0,0,1000,1014.2
160,2023-05-01T02:39:00,0.5,西北西,1.3,西南西,8,93.3,0,0,0,18,0,0,1000.1,1014.3
161,2023-05-01T02:40:00,0.5,西北西,1.3,西南西,8,93.3,0,0,0,18,0,0,1000.1,1014.3
162,2023-05-01T02:41:00,0.6,西北西,1.3,西南西,8.2,93.9,0,0,0,18,0,0,1000,1014.2
163,2023-05-01T02:42:00,0.6,西,1.3,西南西,8.2,94.1,0,0,0,18,0,0,1000,1014.2
164,2023-05-01T02:43:00,0.7,西,1.3,西南西,8.3,94.6,0,0,0,18,0,0,1000,1014.1
165,2023-05-01T02:44:00,0.7,西,1.3,西南西,8.2,94.5,0,0,0,18,0,0,1000,1014.2
166,2023-05-01T02:45:00,0.8,西,1.3,西南西,8.3,94.5,0,0,0,18,0,0,1000,1014.1
167,2023-05-01T02:46:00,0.8,西,1.3,西南西,8.2,94.3,0,0,0,18,0,0,1000,1014.2
168,2023-05-01T02:47:00,0.8,西,1.3,西南西,8.3,94.5,0,0,0,18,0,0,1000,1014.1
169,2023-05-01T02:48:00,0.9,西,1.4,西,8.6,95.1,0,0,0,18,0,0,1000,1014.1
170,2023-05-01T02:49:00,0.9,西,1.4,西,8.5,95.1,0,0,0,18,0,0,1000,1014.1
171,2023-05-01T02:50:00,1,西,1.6,西北西,8.4,94.3,0,0,0,18,0,0,999.9,1014
172,2023-05-01T02:51:00,1.1,西,1.6,西北西,8.4,94.2,0,0,0,18,0,0,999.9,1014
173,2023-05-01T02:52:00,1.1,西,1.6,西北西,8.5,94.4,0,0,0,18,0,0,999.9,1014
174,2023-05-01T02:53:00,1.2,西,1.6,西北西,8.6,94.4,0,0,0,18,0,0,999.9,1014
175,2023-05-01T02:54:00,1.2,西北西,1.6,西北西,8.5,94,0,0,0,18,0,0,999.9,1014
176,2023-05-01T02:55:00,1.3,西北西,1.6,西北西,8.5,93.6,0,0,0,18,0,0,999.9,1014
177,2023-05-01T02:56:00,1.3,西北西,1.6,西北西,8.4,93.3,0,0,0,18,0,0,999.9,1014
178,2023-05-01T02:57:00,1.3,西北西,1.6,西北西,8.3,93,0,0,0,18,0,0,999.9,1014
179,2023-05-01T02:58:00,1.3,西北西,1.6,西北西,8.3,92.8,0,0,0,18,0,0,999.9,1014
180,2023-05-01T02:59:00,1.3,西北西,1.6,西北西,8.2,92.4,0,0,0,18,0,0,1000,1014.2
181,2023-05-01T03:00:00,1.2,西北西,1.6,西北西,8,92.1,0,0,0,18,0,0,999.9,1014.1
182,2023-05-01T03:01:00,1.2,西北西,1.6,西北西,7.9,91.7,0,0,0,18,0,0,999.9,1014.1
183,2023-05-01T03:02:00,1.1,西北西,1.6,西北西,7.8,91.8,0,0,0,18,0,0,999.9,1014.1
184,2023-05-01T03:03:00,1.1,西,1.6,西北西,7.9,92,0,0,0,18,0,0,999.9,1014.1
185,2023-05-01T03:04:00,1.1,西,1.6,西北西,8,92.5,0,0,0,18,0,0,999.9,1014.1
186,2023-05-01T03:05:00,1.1,西,1.6,西北西,8.1,92.7,0,0,0,18,0,0,999.9,1014.1
187,2023-05-01T03:06:00,1,西,1.5,西北西,8,92.8,0,0,0,18,0,0,999.9,1014.1
188,2023-05-01T03:07:00,1,西,1.3,西北西,7.9,92.7,0,0,0,18,0,0,999.9,1014.1
189,2023-05-01T03:08:00,1,西,1.3,西,7.9,92.7,0,0,0,18,0,0,999.8,1014
190,2023-05-01T03:09:00,1,西,1.3,西,7.8,92.7,0,0,0,18,0,0,999.8,1014
191,2023-05-01T03:10:00,1,西,1.3,西,7.6,92.2,0,0,0,18,0,0,999.9,1014.1
192,2023-05-01T03:11:00,1,西,1.3,西,7.7,92.6,0,0,0,18,0,0,999.9,1014.1
193,2023-05-01T03:12:00,1,西,1.3,西,8,93.7,0,0,0,18,0,0,999.9,1014.1
194,2023-05-01T03:13:00,1,西,1.3,西,7.8,93.6,0,0,0,18,0,0,999.8,1014
195,2023-05-01T03:14:00,1.1,西,1.4,西北西,7.9,93.4,0,0,0,18,0,0,999.8,1014
196,2023-05-01T03:15:00,1.1,西,1.5,西北西,7.9,93.8,0,0,0,18,0,0,999.9,1014.1
197,2023-05-01T03:16:00,1.1,西,1.5,西北西,8,93.9,0,0,0,18,0,0,999.9,1014.1
198,2023-05-01T03:17:00,1.1,西,1.5,西北西,8.2,94.2,0,0,0,18,0,0,999.9,1014.1
199,2023-05-01T03:18:00,1.1,西,1.5,西北西,8.2,94.2,0,0,0,18,0,0,999.8,1014
200,2023-05-01T03:19:00,1.1,西,1.5,西北西,8.2,94.2,0,0,0,18,0,0,999.8,1014
201,2023-05-01T03:20:00,1.2,西,1.5,西北西,8.1,93.8,0,0,0,18,0,0,999.9,1014.1
202,2023-05-01T03:21:00,1.2,西北西,1.5,西北西,8,93.2,0,0,0,18,0,0,999.9,1014.1
203,2023-05-01T03:22:00,1.2,西北西,1.5,西北西,7.9,93,0,0,0,18,0,0,999.9,1014.1
204,2023-05-01T03:23:00,1.2,西北西,1.5,西北西,7.8,92.7,0,0,0,18,0,0,999.9,1014.1
205,2023-05-01T03:24:00,1.1,西北西,1.5,西北西,8,92.9,0,0,0,18,0,0,999.9,1014.1
206,2023-05-01T03:25:00,1.1,西北西,1.5,西北西,7.9,93,0,0,0,18,0,0,1000,1014.2
207,2023-05-01T03:26:00,1.1,西北西,1.4,西,8.1,93.3,0,0,0,18,0,0,1000,1014.2
208,2023-05-01T03:27:00,1.1,西北西,1.4,西,8.1,93.4,0,0,0,18,0,0,1000,1014.2
209,2023-05-01T03:28:00,1,西北西,1.4,西,8,93.1,0,0,0,18,0,0,1000,1014.2
210,2023-05-01T03:29:00,1,西北西,1.4,西,7.9,92.7,0,0,0,18,0,0,1000,1014.2
211,2023-05-01T03:30:00,1,西北西,1.4,西,7.9,92.4,0,0,0,18,0,0,1000,1014.2
212,2023-05-01T03:31:00,0.9,西北西,1.3,西,7.8,92.5,0,0,0,18,0,0,999.9,1014.1
213,2023-05-01T03:32:00,0.9,西北西,1.2,西,7.6,92.2,0,0,0,18,0,0,999.9,1014.1
214,2023-05-01T03:33:00,0.8,西北西,1.2,西,7.6,92,0,0,0,18,0,0,999.9,1014.1
215,2023-05-01T03:34:00,0.7,西北西,1.2,西,7.6,92.2,0,0,0,18,0,0,999.9,1014.1
216,2023-05-01T03:35:00,0.7,西北西,1.2,西,7.6,92.4,0,0,0,18,0,0,1000,1014.2
217,2023-05-01T03:36:00,0.6,西北西,1.1,西北西,7.7,92.9,0,0,0,18,0,0,1000,1014.2
218,2023-05-01T03:37:00,0.5,西北西,1.1,西北西,7.8,93.4,0,0,0,18,0,0,1000,1014.2
219,2023-05-01T03:38:00,0.5,西北西,1,西北西,7.7,93.5,0,0,0,18,0,0,1000,1014.2
220,2023-05-01T03:39:00,0.4,西北西,1,西北西,7.7,93.4,0,0,0,18,0,0,1000,1014.2
221,2023-05-01T03:40:00,0.4,西北西,1,西北西,7.6,93.5,0,0,0,18,0,0,1000,1014.2
222,2023-05-01T03:41:00,0.3,西北西,0.9,西北西,7.8,93.6,0,0,0,18,0,0,1000,1014.2
223,2023-05-01T03:42:00,0.3,北西,0.9,西北西,7.6,93.6,0,0,0,18,0,0,999.9,1014.1
224,2023-05-01T03:43:00,0.3,北西,0.9,西北西,7.6,93.4,0,0,0,18,0,0,999.9,1014.1
225,2023-05-01T03:44:00,0.3,北西,0.8,西北西,7.6,93.5,0,0,0,18,0,0,1000,1014.2
226,2023-05-01T03:45:00,0.4,西北西,1,西北西,7.6,93.8,0,0,0,18,0,0,1000,1014.2
227,2023-05-01T03:46:00,0.4,西北西,1,西北西,7.5,93.8,0,0,0,18,0,0,1000,1014.2
228,2023-05-01T03:47:00,0.5,西北西,1.2,西北西,7.6,93.9,0,0,0,18,0,0,1000,1014.2
229,2023-05-01T03:48:00,0.6,西北西,1.2,西北西,7.8,94.4,0,0,0,18,0,0,999.9,1014.1
230,2023-05-01T03:49:00,0.6,西北西,1.2,西北西,7.7,94.4,0,0,0,18,0,0,999.9,1014.1
231,2023-05-01T03:50:00,0.7,西北西,1.3,西北西,7.8,94.3,0,0,0,18,0,0,1000,1014.2
232,2023-05-01T03:51:00,0.8,西北西,1.4,西北西,7.8,94.4,0,0,0,18,0,0,999.9,1014.1
233,2023-05-01T03:52:00,0.9,西北西,1.4,西北西,7.9,94.7,0,0,0,18,0,0,999.9,1014.1
234,2023-05-01T03:53:00,1,西北西,1.4,西北西,7.8,94.6,0,0,0,18,0,0,999.9,1014.1
235,2023-05-01T03:54:00,1,西北西,1.5,西,7.7,94.3,0,0,0,18,0,0,1000,1014.2
236,2023-05-01T03:55:00,1.1,西,1.5,西,7.8,94.2,0,0,0,18,0,0,1000,1014.2
237,2023-05-01T03:56:00,1.1,西北西,1.5,西,7.8,94,0,0,0,18,0,0,1000,1014.2
238,2023-05-01T03:57:00,1.2,西北西,1.5,西,7.8,94,0,0,0,18,0,0,1000,1014.2
239,2023-05-01T03:58:00,1.2,西北西,1.5,西,7.9,94.1,0,0,0,18,0,0,1000,1014.2
240,2023-05-01T03:59:00,1.2,西北西,1.5,西,7.9,94.1,0,0,0,18,0,0,1000,1014.2
241,2023-05-01T04:00:00,1.3,西北西,1.5,西,7.9,93.7,0,0,0,18,0,0,1000,1014.2
242,2023-05-01T04:01:00,1.3,西,1.5,西,8.1,94,0,0,0,18,0,0,1000,1014.2
243,2023-05-01T04:02:00,1.3,西,1.5,西,7.9,93.7,0,0,0,18,0,0,1000,1014.2
244,2023-05-01T04:03:00,1.3,西,1.5,西,7.6,92.7,0,0,0,18,0,0,1000,1014.2
245,2023-05-01T04:04:00,1.3,西,1.5,西,7.7,92.3,0,0,0,18,0,0,1000,1014.2
246,2023-05-01T04:05:00,1.3,西,1.5,西,7.6,92.5,0,0,0,18,0,0,1000,1014.2
247,2023-05-01T04:06:00,1.3,西,1.5,西,7.7,92.5,0,0,0,18,0,0,1000,1014.2
248,2023-05-01T04:07:00,1.2,西,1.5,西,7.7,92.6,0,0,0,18,0,0,1000,1014.2
249,2023-05-01T04:08:00,1.2,西,1.5,西,7.7,92.8,0,0,0,18,0,0,1000,1014.2
250,2023-05-01T04:09:00,1.2,西,1.5,西,7.6,92.7,0,0,0,18,0,0,1000.1,1014.3
251,2023-05-01T04:10:00,1.2,西,1.5,西,7.8,93,0,0,0,18,0,0,1000,1014.2
252,2023-05-01T04:11:00,1.2,西,1.5,西,7.6,92.7,0,0,0,18,0,0,1000.1,1014.3
253,2023-05-01T04:12:00,1.2,西,1.5,西,7.5,92.5,0,0,0,18,0,0,1000.1,1014.3
254,2023-05-01T04:13:00,1.2,西,1.6,西,7.6,92.6,0,0,0,18,0,0,1000.1,1014.3
255,2023-05-01T04:14:00,1.2,西,1.8,西,7.4,92.5,0,0,0,18,0,0,1000.1,1014.3
256,2023-05-01T04:15:00,1.3,西,2,西,7.4,92,0,0,0,18,0,0,1000.1,1014.3
257,2023-05-01T04:16:00,1.3,西,2.2,西,7.2,91.8,0,0,0,18,0,0,1000.1,1014.3
258,2023-05-01T04:17:00,1.4,西,2.2,西,6.9,91.3,0,0,0,18,0,0,1000.1,1014.3
259,2023-05-01T04:18:00,1.4,西,2.2,西,6.9,91.5,0,0,0,18,0,0,1000.1,1014.3
260,2023-05-01T04:19:00,1.5,西,2.2,西,7,92.2,0,0,0,18,0,0,1000.1,1014.3
261,2023-05-01T04:20:00,1.5,西,2.2,西,6.9,92.4,0,0,0,18,0,0,1000,1014.2
262,2023-05-01T04:21:00,1.5,西,2.2,西,7,92.8,0,0,0,18,0,0,1000,1014.2
263,2023-05-01T04:22:00,1.5,西,2.2,西,7.2,93.7,0,0,0,18,0,0,1000,1014.2
264,2023-05-01T04:23:00,1.5,西,2.2,西,7.1,94,0,0,0,18,0,0,1000,1014.2
265,2023-05-01T04:24:00,1.5,西,2.2,西,7.2,94.1,0,0,0,18,0,0,1000,1014.2
266,2023-05-01T04:25:00,1.4,西,2.2,西,7.2,94.1,0,0,0,18,0,0,1000,1014.2
267,2023-05-01T04:26:00,1.4,西,1.9,西,7,94,0,0,0,18,0,0,1000,1014.2
268,2023-05-01T04:27:00,1.4,西,1.8,西,6.9,93.6,0,0,0,18,0,0,1000,1014.2
269,2023-05-01T04:28:00,1.4,西,1.7,西,6.9,93.8,0,0,0,18,0,0,1000,1014.2
270,2023-05-01T04:29:00,1.4,西,1.7,西,6.9,93.9,0,0,0,18,0,0,1000,1014.2
271,2023-05-01T04:30:00,1.4,西,1.7,西,7,94.3,0,0,0,18,0,0,1000,1014.2
272,2023-05-01T04:31:00,1.4,西,1.7,西,7.2,94.9,0,0,0,18,0,0,1000,1014.2
273,2023-05-01T04:32:00,1.4,西,1.7,西,7,94.6,0,0,0,18,0,0,999.9,1014.1
274,2023-05-01T04:33:00,1.4,西,1.7,西,7,94.5,0,0,0,18,0,0,1000,1014.2
275,2023-05-01T04:34:00,1.3,西,1.7,西,7,94.7,0,0,0,18,0,0,999.9,1014.1
276,2023-05-01T04:35:00,1.3,西,1.7,西,7.1,94.9,0,0,0,18,0,0,1000,1014.2
277,2023-05-01T04:36:00,1.3,西,1.7,西,7.2,95.1,0,0,0,18,0,0,1000,1014.2
278,2023-05-01T04:37:00,1.3,西,1.7,西,7.3,95.1,0,0,0,18,0,0,999.9,1014.1
279,2023-05-01T04:38:00,1.3,西,1.7,西,7.3,95.1,0,0,0,18,0,0,999.9,1014.1
280,2023-05-01T04:39:00,1.3,西,1.7,西,7.3,95.1,0,0,0,18,0,0,999.9,1014.1
281,2023-05-01T04:40:00,1.3,西,1.7,西,7.4,95.1,0,0,0,18,0,0,999.9,1014.1
282,2023-05-01T04:41:00,1.3,西,1.7,西,7.3,94.8,0,0,0,18,0,0,999.9,1014.1
283,2023-05-01T04:42:00,1.2,西,1.7,西,7.3,94.3,0,0,0,18,0,0,999.9,1014.1
284,2023-05-01T04:43:00,1.2,西,1.7,西,6.9,93.5,0,0,0,18,0,0,999.9,1014.1
285,2023-05-01T04:44:00,1.2,西,1.7,西,7.2,93.7,0,0,0,18,0,0,999.9,1014.1
286,2023-05-01T04:45:00,1.2,西,1.7,西,7.2,93.9,0,0,0,18,0,0,999.9,1014.1
287,2023-05-01T04:46:00,1.1,西,1.6,西,7.2,94,0,0,0,18,0,0,999.9,1014.1
288,2023-05-01T04:47:00,1,西,1.4,西北西,7.3,93.9,0,0,0,18,0,0,999.9,1014.1
289,2023-05-01T04:48:00,1,西,1.4,西北西,7.2,93.8,0,0,0,18,0,0,999.9,1014.1
290,2023-05-01T04:49:00,0.9,西,1.3,西,7,93.4,0,0,0,18,0,0,999.9,1014.1
291,2023-05-01T04:50:00,0.9,西,1.3,西,7,93.5,0,0,0,18,0,0,999.9,1014.1
292,2023-05-01T04:51:00,0.8,西,1.3,西,7.1,93.7,0,0,0,18,0,0,1000,1014.2
293,2023-05-01T04:52:00,0.8,西,1.3,西,7.1,93.9,0,0,0,18,0,0,1000,1014.2
294,2023-05-01T04:53:00,0.7,西北西,1.2,西北西,7.1,93.7,0,0,0,18,0,0,999.9,1014.1
295,2023-05-01T04:54:00,0.7,西北西,1.2,西北西,7.1,93.9,0,0,0,18,0,0,999.9,1014.1
296,2023-05-01T04:55:00,0.7,西北西,1.1,西北西,7.2,94.2,0,0,0,18,0,0,999.9,1014.1
297,2023-05-01T04:56:00,0.6,西北西,1.1,西北西,7.2,94,0,0,0,18,0,0,999.9,1014.1
298,2023-05-01T04:57:00,0.6,西北西,1.1,西北西,7.2,94.2,0,0,0,18,0,0,999.9,1014.1
299,2023-05-01T04:58:00,0.6,西北西,1.1,西北西,7.2,94.4,0,0,0,18,0,0,999.9,1014.1
300,2023-05-01T04:59:00,0.6,西北西,1.1,西北西,7.1,94.1,0,0,0,18,0,0,1000,1014.2
301,2023-05-01T05:00:00,0.5,西北西,1.1,西北西,7.1,94.1,0,0,0,18,0,0,1000,1014.2
302,2023-05-01T05:01:00,0.5,西北西,1.1,西北西,7.1,94.2,0,0,0,18,0,0,999.9,1014.1
303,2023-05-01T05:02:00,0.5,西北西,0.8,西,7.1,94.3,0,0,0,18,0,0,999.9,1014.1
304,2023-05-01T05:03:00,0.4,西北西,0.8,西,7,94,0,0,0,18,0,0,999.9,1014.1
305,2023-05-01T05:04:00,0.4,西北西,0.8,西,7,94,0,0,0,18,0,0,999.9,1014.1
306,2023-05-01T05:05:00,0.4,西北西,0.8,西,7,94.1,0,0,0,18,0,0,999.9,1014.1
307,2023-05-01T05:06:00,0.4,西北西,0.8,西,7.1,94.5,0,0,0,18,0,0,999.9,1014.1
308,2023-05-01T05:07:00,0.4,西北西,0.8,西,7.1,94.7,0,0,0,18,0,0,999.9,1014.1
309,2023-05-01T05:08:00,0.3,北西,0.7,西北西,7,94.6,0,0,0,18,0,0,999.9,1014.1
310,2023-05-01T05:09:00,0.3,北西,0.7,西北西,7,94.2,0,0,0,0,0,0,999.9,1014.1
311,2023-05-01T05:10:00,0.2,静穏,0.7,西北西,7,94.5,0,0,0,0,0,0,1000,1014.2
312,2023-05-01T05:11:00,0.2,静穏,0.7,西北西,7.2,94.9,0,0,0,0,0,0,1000,1014.2
313,2023-05-01T05:12:00,0.2,静穏,0.5,西北西,7.2,94.7,0,0,0,0,0,0,999.9,1014.1
314,2023-05-01T05:13:00,0.2,静穏,0.6,西北西,7.2,95,0,0,0,0,0,0,999.9,1014.1
315,2023-05-01T05:14:00,0.2,静穏,0.7,西,7.1,94.7,0,0,0,0,0,0,1000,1014.2
316,2023-05-01T05:15:00,0.2,静穏,0.8,西,7,94.5,0,0,0,0,0,0,1000,1014.2
317,2023-05-01T05:16:00,0.3,北西,0.9,西北西,7,94.5,0,0,0,0,0,0,1000,1014.2
318,2023-05-01T05:17:00,0.3,北西,0.9,西北西,6.9,94.3,0,0,0,0,0,0,1000,1014.2
319,2023-05-01T05:18:00,0.3,北西,0.9,西北西,7,94.7,0,0,0,0,0,0,1000,1014.2
320,2023-05-01T05:19:00,0.3,西北西,0.9,西北西,7,94.9,0,0,0,0,0,0,1000,1014.2
321,2023-05-01T05:20:00,0.4,西北西,0.9,西北西,6.9,94.6,0,0,0,0,0,0,1000.1,1014.3
322,2023-05-01T05:21:00,0.4,西北西,1.1,西,6.9,94.4,0,0,0,0,0,0,1000.1,1014.3
323,2023-05-01T05:22:00,0.5,西北西,1.1,西,6.8,94.5,0,0,0,0,0.01,0,1000.2,1014.4
324,2023-05-01T05:23:00,0.5,西北西,1.1,西,6.7,94.4,0,0,0,0,0.01,0,1000.2,1014.4
325,2023-05-01T05:24:00,0.5,西北西,1.1,西,6.8,94.8,0,0,0,0,0.01,0,1000.2,1014.4
326,2023-05-01T05:25:00,0.6,西北西,1.1,西,6.9,94.9,0,0,0,0,0.01,0,1000.2,1014.4
327,2023-05-01T05:26:00,0.6,西,1.1,西,6.8,94.9,0,0,0,0,0.01,0,1000.2,1014.4
328,2023-05-01T05:27:00,0.6,西,1.1,西,6.8,95.1,0,0,0,0,0.01,0,1000.3,1014.5
329,2023-05-01T05:28:00,0.6,西,1.1,西,6.9,95.3,0,0,0,0,0.01,0,1000.3,1014.5